period_start,C,m1,H,J0,J1,J2,J3,J4,J5,JA,JB,JC,JD,JJ,JK,JN,#
2015-04-21 00:01:48,0.09,0.75,0.00,23.63,27.05,29.88,4.80,26.52,1018.09,2034.99,3177.78,3096.18,3354.29,349.47,346.97,5.25,0000 0000 0000 0000 000000
2015-04-21 00:06:49,0.07,0.75,0.00,23.59,27.05,29.90,4.76,26.45,1018.09,2034.99,3176.73,3095.70,3353.70,350.21,347.70,5.28,0000 0000 0000 0000 000000
2015-04-21 00:11:50,0.09,0.75,0.00,23.44,27.05,29.93,4.78,26.53,1018.09,2034.99,3175.48,3094.80,3352.81,349.94,347.57,5.31,0000 0000 0000 0000 000000
2015-04-21 00:16:52,0.07,0.76,0.00,23.32,27.05,29.97,4.85,26.56,1018.10,2034.99,3174.27,3094.01,3351.99,350.56,348.31,5.34,0000 0000 0000 0000 000000
2015-04-21 00:21:53,0.09,0.76,0.00,23.27,27.05,29.98,4.80,26.55,1018.09,2034.99,3173.13,3093.17,3351.11,349.77,347.64,5.37,0000 0000 0000 0000 000000
2015-04-21 00:26:54,0.09,0.76,0.00,23.20,27.04,29.93,4.77,26.55,1018.09,2034.99,3172.04,3092.53,3350.23,349.42,347.42,5.39,0000 0000 0000 0000 000000
2015-04-21 00:31:56,0.07,0.77,0.00,23.28,27.03,29.93,4.76,26.48,1018.08,2034.99,3171.00,3091.91,3349.56,350.06,347.92,5.42,0000 0000 0000 0000 000000
2015-04-21 00:36:57,0.09,0.77,0.00,23.58,27.02,29.92,4.76,26.54,1018.08,2034.97,3169.86,3091.07,3348.75,350.55,348.12,5.45,0000 0000 0000 0000 000000
2015-04-21 00:41:58,0.08,0.77,0.00,23.69,27.02,29.88,4.78,26.55,1018.08,2034.98,3168.83,3090.37,3347.97,350.15,347.53,5.48,0000 0000 0000 0000 000000
2015-04-21 00:46:59,0.08,0.77,0.00,23.69,27.03,29.88,4.76,26.46,1018.08,2034.99,3167.77,3089.72,3347.14,350.09,347.40,5.51,0000 0000 0000 0000 000000
2015-04-21 00:52:00,0.07,0.78,0.00,23.55,27.04,29.91,4.75,26.50,1018.08,2034.99,3166.69,3088.98,3346.46,350.21,347.78,5.54,0000 0000 0000 0000 000000
2015-04-21 00:57:02,0.10,0.78,0.00,23.38,27.05,29.93,4.78,26.60,1018.07,2034.98,3165.48,3088.14,3345.56,349.66,347.26,5.57,0000 0000 0000 0000 000000
2015-04-21 01:02:03,0.08,0.78,0.00,23.34,27.05,29.95,4.73,26.60,1018.06,2034.96,3164.26,3087.32,3344.79,349.75,347.31,5.60,0000 0000 0000 0000 000000
2015-04-21 01:07:04,0.06,0.78,0.00,23.27,27.04,29.96,4.75,26.47,1018.07,2034.96,3163.26,3086.82,3344.01,349.98,347.75,5.63,0000 0000 0000 0000 000000
2015-04-21 01:12:05,0.09,0.79,0.00,23.22,27.03,29.95,4.77,26.52,1018.07,2034.98,3162.11,3086.04,3343.16,349.79,347.72,5.66,0000 0000 0000 0000 000000
2015-04-21 01:17:06,0.10,0.79,0.00,23.32,27.02,29.92,4.82,26.50,1018.03,2034.99,3160.98,3085.28,3342.48,349.79,347.50,5.69,0000 0000 0000 0000 000000
2015-04-21 01:22:07,0.06,0.79,0.00,23.58,27.02,29.86,4.79,26.55,1017.89,2034.99,3160.02,3084.75,3341.85,350.13,347.67,5.72,0000 0000 0000 0000 000000
2015-04-21 01:27:08,0.08,0.79,0.00,23.70,27.02,29.88,4.77,26.47,1017.82,2034.99,3159.00,3083.99,3341.02,350.37,347.72,5.75,0000 0000 0000 0000 000000
2015-04-21 01:32:10,0.11,0.80,0.00,23.62,27.02,29.88,4.79,26.43,1017.79,2034.99,3157.59,3083.11,3340.07,350.54,347.84,5.78,0000 0000 0000 0000 000000
2015-04-21 01:37:11,0.10,0.80,0.00,23.46,27.04,29.91,4.78,26.68,1017.86,2034.98,3156.36,3082.21,3339.14,350.08,347.53,5.80,0000 0000 0000 0000 000000
2015-04-21 01:42:12,0.08,0.80,0.00,23.39,27.04,29.93,4.77,26.56,1017.95,2034.97,3155.24,3081.64,3338.39,349.94,347.67,5.83,0000 0000 0000 0000 000000
2015-04-21 01:47:13,0.05,0.80,0.00,23.35,27.04,29.95,4.72,26.56,1017.89,2034.98,3154.28,3080.99,3337.83,349.18,346.74,5.86,0000 0000 0000 0000 000000
2015-04-21 01:52:14,0.09,0.81,0.00,23.29,27.04,29.96,4.84,26.63,1017.69,2034.99,3153.35,3080.26,3337.04,350.12,347.86,5.89,0000 0000 0000 0000 000000
2015-04-21 01:57:16,0.07,0.81,0.00,23.27,27.02,29.93,4.80,26.52,1017.70,2034.98,3152.39,3079.79,3336.32,349.92,347.79,5.92,0000 0000 0000 0000 000000
2015-04-21 02:02:17,0.06,0.81,0.00,23.25,27.02,29.93,4.81,26.52,1017.86,2034.99,3151.44,3079.05,3335.80,349.88,347.78,5.95,0000 0000 0000 0000 000000
2015-04-21 02:07:18,0.08,0.81,0.00,23.48,27.02,29.85,4.79,26.51,1017.98,2034.98,3150.54,3078.44,3335.04,350.50,348.21,5.98,0000 0000 0000 0000 000000
2015-04-21 02:12:20,0.04,0.81,0.00,23.70,27.02,29.84,4.77,26.46,1017.93,2034.99,3149.81,3078.00,3334.50,350.27,347.62,6.01,0000 0000 0000 0000 000000
2015-04-21 02:17:21,0.07,0.82,0.00,23.72,27.02,29.86,4.79,26.56,1017.87,2034.99,3148.90,3077.42,3333.93,350.12,347.40,6.04,0000 0000 0000 0000 000000
2015-04-21 02:22:22,0.06,0.82,0.00,23.58,27.03,29.89,4.80,26.64,1017.82,2034.99,3147.95,3076.87,3333.12,349.63,347.08,6.07,0000 0000 0000 0000 000000
2015-04-21 02:27:23,0.08,0.82,0.00,23.48,27.04,29.93,4.77,26.52,1017.79,2034.98,3147.06,3076.08,3332.64,349.94,347.36,6.10,0000 0000 0000 0000 000000
2015-04-21 02:32:24,0.06,0.82,0.00,23.43,27.05,29.93,4.83,26.65,1017.67,2034.99,3146.18,3075.72,3332.00,350.07,347.59,6.13,0000 0000 0000 0000 000000
2015-04-21 02:37:25,0.08,0.83,0.00,23.41,27.05,29.93,4.75,26.55,1017.63,2034.99,3145.21,3074.99,3331.18,349.51,347.01,6.16,0000 0000 0000 0000 000000
2015-04-21 02:42:26,0.08,0.83,0.00,23.37,27.04,29.94,4.77,26.63,1017.61,2034.99,3144.29,3074.31,3330.67,350.13,347.64,6.19,0000 0000 0000 0000 000000
2015-04-21 02:47:28,0.04,0.83,0.00,23.32,27.04,29.92,4.76,26.63,1017.60,2034.98,3143.41,3073.89,3330.01,349.95,347.64,6.21,0000 0000 0000 0000 000000
2015-04-21 02:52:29,0.09,0.83,0.00,23.32,27.03,29.92,4.77,26.49,1017.59,2034.98,3142.48,3073.09,3329.31,349.91,347.45,6.24,0000 0000 0000 0000 000000
2015-04-21 02:57:30,0.06,0.83,0.00,23.30,27.02,29.91,4.79,26.52,1017.59,2034.99,3141.57,3072.69,3328.77,350.19,347.79,6.27,0000 0000 0000 0000 000000
2015-04-21 03:02:31,0.06,0.84,0.00,23.27,27.02,29.90,4.84,26.51,1017.60,2034.99,3140.61,3071.98,3328.01,350.43,348.15,6.30,0000 0000 0000 0000 000000
2015-04-21 03:07:32,0.10,0.84,0.00,23.28,27.02,29.89,4.83,26.52,1017.59,2034.99,3139.55,3071.15,3327.16,350.02,347.71,6.33,0000 0000 0000 0000 000000
2015-04-21 03:12:34,0.03,0.84,0.00,23.28,27.02,29.87,4.74,26.60,1017.59,2034.99,3138.69,3070.93,3326.85,349.74,347.35,6.36,0000 0000 0000 0000 000000
2015-04-21 03:17:35,0.09,0.84,0.00,23.27,27.00,29.86,4.76,26.62,1017.59,2034.99,3137.67,3070.15,3326.05,350.36,348.07,6.39,0000 0000 0000 0000 000000
2015-04-21 03:22:36,0.07,0.84,0.00,23.38,27.00,29.83,4.81,26.57,1017.59,2034.99,3136.78,3069.65,3325.45,350.80,348.44,6.42,0000 0000 0000 0000 000000
2015-04-21 03:27:38,0.07,0.85,0.00,23.65,27.00,29.79,4.81,26.61,1017.59,2034.99,3135.73,3068.95,3324.65,350.55,347.95,6.45,0000 0000 0000 0000 000000
2015-04-21 03:32:39,0.07,0.85,0.00,23.77,27.00,29.81,4.81,26.61,1017.58,2034.99,3134.81,3068.12,3323.88,350.24,347.41,6.48,0000 0000 0000 0000 000000
2015-04-21 03:37:40,0.10,0.85,0.00,23.75,27.01,29.84,4.78,26.61,1017.58,2034.99,3133.68,3067.39,3323.02,350.58,347.89,6.51,0000 0000 0000 0000 000000
2015-04-21 03:42:41,0.08,0.85,0.00,23.59,27.02,29.84,4.80,26.57,1017.57,2034.99,3132.62,3066.67,3322.18,350.12,347.29,6.54,0000 0000 0000 0000 000000
2015-04-21 03:47:42,0.09,0.86,0.00,23.56,27.02,29.86,4.81,26.52,1017.55,2034.99,3131.44,3065.88,3321.28,350.23,347.46,6.57,0000 0000 0000 0000 000000
2015-04-21 03:52:43,0.09,0.86,0.00,23.56,27.02,29.91,4.78,26.58,1017.50,2034.99,3130.26,3065.05,3320.54,349.99,347.38,6.60,0000 0000 0000 0000 000000
2015-04-21 03:57:45,0.09,0.86,0.00,23.52,27.03,29.93,4.75,26.63,1017.43,2034.99,3129.21,3064.33,3319.78,349.59,346.85,6.62,0000 0000 0000 0000 000000
2015-04-21 04:02:46,0.08,0.87,0.00,23.47,27.04,29.92,4.81,26.59,1017.42,2034.99,3128.13,3063.63,3318.93,349.77,347.13,6.65,0000 0000 0000 0000 000000
2015-04-21 04:07:47,0.09,0.87,0.00,23.47,27.04,29.92,4.82,26.68,1017.24,2034.99,3126.96,3062.78,3318.05,350.79,348.13,6.68,0000 0000 0000 0000 000000
2015-04-21 04:12:48,0.08,0.87,0.00,23.45,27.04,29.92,4.76,26.65,1017.20,2034.99,3125.84,3062.01,3317.17,350.30,347.68,6.71,0000 0000 0000 0000 000000
2015-04-21 04:17:50,0.10,0.87,0.00,23.42,27.03,29.92,4.75,26.58,1017.19,2034.99,3124.74,3061.24,3316.37,349.80,347.36,6.74,0000 0000 0000 0000 000000
2015-04-21 04:22:51,0.08,0.88,0.00,23.42,27.02,29.91,4.76,26.53,1017.27,2034.99,3123.69,3060.58,3315.63,350.25,347.54,6.77,0000 0000 0000 0000 000000
2015-04-21 04:27:52,0.07,0.88,0.00,23.42,27.02,29.89,4.78,26.57,1017.29,2034.99,3122.62,3059.88,3314.79,350.16,347.57,6.80,0000 0000 0000 0000 000000
2015-04-21 04:32:53,0.07,0.88,0.00,23.42,27.02,29.90,4.76,26.54,1017.22,2034.99,3121.70,3059.09,3314.03,350.08,347.39,6.83,0000 0000 0000 0000 000000
2015-04-21 04:37:55,0.10,0.88,0.00,23.42,27.02,29.88,4.74,26.62,1017.13,2034.99,3120.59,3058.44,3313.28,349.85,347.06,6.86,0000 0000 0000 0000 000000
2015-04-21 04:42:56,0.05,0.89,0.00,23.43,27.02,29.88,4.74,26.60,1017.13,2034.99,3119.70,3057.94,3312.68,350.07,347.45,6.89,0000 0000 0000 0000 000000
2015-04-21 04:47:58,0.08,0.89,0.00,23.42,27.02,29.87,4.76,26.60,1017.12,2034.99,3118.74,3057.12,3311.98,349.90,347.19,6.92,0000 0000 0000 0000 000000
2015-04-21 04:52:59,0.08,0.89,0.00,23.42,27.02,29.87,4.77,26.57,1017.12,2034.99,3117.77,3056.58,3311.20,350.48,347.71,6.95,0000 0000 0000 0000 000000
2015-04-21 04:58:00,0.06,0.89,0.00,23.44,27.02,29.87,4.81,26.63,1017.12,2034.99,3116.81,3055.98,3310.44,349.76,347.14,6.98,0000 0000 0000 0000 000000
2015-04-21 05:03:02,0.09,0.90,0.00,23.44,27.02,29.86,4.76,26.66,1017.13,2034.99,3115.72,3055.18,3309.75,350.19,347.52,7.01,0000 0000 0000 0000 000000
2015-04-21 05:08:03,0.07,0.90,0.00,23.42,27.00,29.87,4.75,26.69,1017.12,2034.99,3114.80,3054.54,3309.02,350.13,347.49,7.03,0000 0000 0000 0000 000000
2015-04-21 05:13:05,0.06,0.90,0.00,23.44,27.00,29.87,4.81,26.50,1017.11,2034.99,3113.82,3053.97,3308.26,350.38,347.79,7.06,0000 0000 0000 0000 000000
2015-04-21 05:18:06,0.08,0.90,0.00,23.45,27.00,29.85,4.70,26.58,1017.12,2034.99,3112.87,3053.18,3307.74,349.81,347.15,7.09,0000 0000 0000 0000 000000
2015-04-21 05:23:07,0.08,0.90,0.00,23.44,27.00,29.86,4.78,26.59,1017.12,2034.99,3111.87,3052.54,3306.94,350.18,347.57,7.12,0000 0000 0000 0000 000000
2015-04-21 05:28:09,0.06,0.91,0.00,23.46,27.00,29.85,4.78,26.52,1017.12,2034.99,3110.88,3051.98,3306.10,349.75,347.10,7.15,0000 0000 0000 0000 000000
2015-04-21 05:33:10,0.10,0.91,0.00,23.49,27.00,29.84,4.78,26.63,1017.11,2034.99,3109.78,3051.18,3305.39,350.19,347.41,7.18,0000 0000 0000 0000 000000
2015-04-21 05:38:11,0.09,0.91,0.00,23.47,27.00,29.85,4.73,26.58,1017.11,2034.99,3108.73,3050.42,3304.66,349.67,347.03,7.21,0000 0000 0000 0000 000000
2015-04-21 05:43:13,0.03,0.91,0.00,23.48,27.00,29.85,4.74,26.58,1017.11,2034.99,3107.91,3049.96,3304.02,349.59,347.11,7.24,0000 0000 0000 0000 000000
2015-04-21 05:48:14,0.09,0.92,0.00,23.50,27.00,29.85,4.78,26.61,1017.11,2034.99,3107.00,3049.14,3303.25,349.97,347.23,7.27,0000 0000 0000 0000 000000
2015-04-21 05:53:15,0.07,0.92,0.00,23.50,27.00,29.85,4.79,26.62,1017.11,2034.99,3106.06,3048.73,3302.70,350.23,347.50,7.30,0000 0000 0000 0000 000000
2015-04-21 05:58:16,0.07,0.92,0.00,23.50,27.00,29.86,4.76,26.60,1017.11,2035.00,3105.09,3048.01,3301.93,349.45,346.59,7.33,0000 0000 0000 0000 000000
2015-04-21 06:03:18,0.09,0.92,0.00,23.52,27.00,29.85,4.79,26.51,1017.10,2035.00,3104.07,3047.27,3301.11,350.18,347.16,7.36,0000 0000 0000 0000 000000
2015-04-21 06:08:19,0.08,0.93,0.00,23.55,27.00,29.84,4.76,26.50,1017.10,2035.00,3103.08,3046.69,3300.46,350.11,347.31,7.39,0000 0000 0000 0000 000000
2015-04-21 06:13:20,0.06,0.93,0.00,23.54,27.00,29.86,4.78,26.57,1017.09,2035.00,3102.15,3046.01,3299.80,349.96,347.34,7.42,0000 0000 0000 0000 000000
2015-04-21 06:18:22,0.09,0.93,0.00,23.55,27.00,29.86,4.78,26.58,1017.08,2035.00,3101.12,3045.21,3298.98,349.82,347.03,7.44,0000 0000 0000 0000 000000
2015-04-21 06:23:23,0.07,0.93,0.00,23.57,27.00,29.85,4.79,26.70,1017.09,2035.00,3100.15,3044.76,3298.19,349.76,346.71,7.47,0000 0000 0000 0000 000000
2015-04-21 06:28:24,0.08,0.94,0.00,23.57,27.00,29.87,4.78,26.61,1017.10,2035.00,3099.16,3044.00,3297.50,349.86,346.91,7.50,0000 0000 0000 0000 000000
2015-04-21 06:33:25,0.08,0.94,0.00,23.57,27.00,29.86,4.79,26.57,1017.08,2035.00,3098.18,3043.23,3296.89,349.92,347.12,7.53,0000 0000 0000 0000 000000
2015-04-21 06:38:26,0.09,0.94,0.00,23.61,27.00,29.87,4.74,26.56,1017.05,2034.99,3097.18,3042.52,3296.06,349.86,346.99,7.56,0000 0000 0000 0000 000000
2015-04-21 06:43:28,0.06,0.94,0.00,23.62,27.01,29.85,4.71,26.63,1017.02,2034.99,3096.27,3041.98,3295.36,349.79,346.70,7.59,0000 0000 0000 0000 000000
2015-04-21 06:48:29,0.09,0.95,0.00,23.62,27.02,29.84,4.72,26.67,1017.03,2034.99,3095.27,3041.19,3294.63,349.19,346.44,7.62,0000 0000 0000 0000 000000
2015-04-21 06:53:30,0.07,0.95,0.00,23.62,27.02,29.86,4.75,26.61,1017.07,2034.99,3094.31,3040.69,3293.95,350.09,347.21,7.65,0000 0000 0000 0000 000000
2015-04-21 06:58:31,0.07,0.95,0.00,23.65,27.02,29.87,4.74,26.53,1017.07,2034.99,3093.39,3040.02,3293.14,349.72,346.73,7.68,0000 0000 0000 0000 000000
2015-04-21 07:03:32,0.09,0.95,0.00,23.65,27.02,29.87,4.78,26.68,1017.08,2034.99,3092.46,3039.41,3292.45,349.79,346.84,7.71,0000 0000 0000 0000 000000
2015-04-21 07:08:34,0.07,0.95,0.00,23.65,27.02,29.88,4.76,26.59,1017.08,2034.99,3091.49,3038.71,3291.82,350.50,347.57,7.74,0000 0000 0000 0000 000000
2015-04-21 07:13:35,0.06,0.96,0.00,23.67,27.02,29.87,4.78,26.55,1017.08,2034.99,3090.56,3038.01,3291.05,349.90,347.02,7.77,0000 0000 0000 0000 000000
2015-04-21 07:18:36,0.10,0.96,0.00,23.68,27.02,29.87,4.74,26.65,1017.09,2034.99,3089.52,3037.27,3290.22,349.54,346.53,7.80,0000 0000 0000 0000 000000
2015-04-21 07:23:38,0.08,0.96,0.00,23.70,27.03,29.87,4.74,26.56,1017.10,2034.99,3088.57,3036.66,3289.52,349.93,346.92,7.83,0000 0000 0000 0000 000000
2015-04-21 07:28:39,0.05,0.96,0.00,23.69,27.04,29.86,4.71,26.53,1017.10,2034.99,3087.58,3035.99,3288.83,349.91,346.98,7.85,0000 0000 0000 0000 000000
2015-04-21 07:33:40,0.09,0.97,0.00,23.72,27.05,29.87,4.78,26.68,1017.10,2034.98,3086.60,3035.20,3288.03,350.19,347.24,7.88,0000 0000 0000 0000 000000
2015-04-21 07:38:42,0.10,0.97,0.00,23.73,27.05,29.88,4.81,26.58,1017.10,2034.99,3085.42,3034.39,3287.20,350.12,347.19,7.91,0000 0000 0000 0000 000000
2015-04-21 07:43:43,0.05,0.97,0.00,23.72,27.05,29.87,4.71,26.56,1017.10,2034.98,3084.54,3033.88,3286.42,349.29,346.22,7.94,0000 0000 0000 0000 000000
2015-04-21 07:48:44,0.08,0.97,0.00,23.72,27.05,29.88,4.75,26.63,1017.10,2034.98,3083.55,3033.06,3285.72,349.91,347.09,7.97,0000 0000 0000 0000 000000
2015-04-21 07:53:46,0.09,0.98,0.00,23.73,27.05,29.91,4.75,26.58,1017.10,2034.96,3082.55,3032.36,3284.98,349.96,346.73,8.00,0000 0000 0000 0000 000000
2015-04-21 07:58:47,0.08,0.98,0.00,23.73,27.05,29.90,4.72,26.53,1017.11,2034.97,3081.56,3031.76,3284.12,349.83,346.82,8.03,0000 0000 0000 0000 000000
2015-04-21 08:03:48,0.08,0.98,0.00,23.72,27.07,29.91,4.75,26.59,1017.11,2034.93,3080.53,3031.01,3283.23,349.85,346.97,8.06,0000 0000 0000 0000 000000
2015-04-21 08:08:49,0.09,0.98,0.00,23.72,27.07,29.91,4.78,26.59,1017.11,2034.96,3079.55,3030.21,3282.61,349.84,346.98,8.09,0000 0000 0000 0000 000000
2015-04-21 08:13:51,0.07,0.99,0.00,23.74,27.07,29.91,4.75,26.52,1017.11,2034.97,3078.58,3029.67,3281.94,350.05,346.96,8.12,0000 0000 0000 0000 000000
2015-04-21 08:18:52,0.08,0.99,0.00,23.72,27.07,29.90,4.75,26.57,1017.11,2034.94,3077.50,3028.90,3281.09,350.30,347.22,8.15,0000 0000 0000 0000 000000
2015-04-21 08:23:53,0.10,0.99,0.00,23.72,27.07,29.92,4.70,26.55,1017.12,2034.92,3076.49,3028.06,3280.12,349.01,345.96,8.18,0000 0000 0000 0000 000000
2015-04-21 08:28:55,0.08,0.99,0.00,23.72,27.07,29.93,4.79,26.55,1017.12,2034.83,3075.34,3027.30,3279.33,349.64,346.55,8.21,0000 0000 0000 0000 000000
2015-04-21 08:33:56,0.09,1.00,0.00,23.71,27.08,29.93,4.66,26.57,1017.12,2034.82,3074.38,3026.71,3278.62,349.51,346.49,8.24,0000 0000 0000 0000 000000
2015-04-21 08:38:57,0.03,1.00,0.00,23.69,27.08,29.93,4.81,26.62,1017.13,2034.59,3073.20,3025.85,3277.66,350.56,347.70,8.26,0000 0000 0000 0000 000000
2015-04-21 08:43:58,0.09,1.00,0.00,23.68,27.09,29.95,4.75,26.52,1017.14,2034.54,3072.27,3025.06,3276.96,349.77,346.98,8.29,0000 0000 0000 0000 000000
2015-04-21 08:48:59,0.10,1.00,0.00,23.70,27.09,29.94,4.78,26.55,1017.13,2034.56,3071.28,3024.39,3276.13,350.18,347.31,8.32,0000 0000 0000 0000 000000
2015-04-21 08:54:01,0.03,1.01,0.00,23.69,27.10,29.95,4.76,26.52,1017.15,2034.48,3070.42,3023.82,3275.42,350.17,347.30,8.35,0000 0000 0000 0000 000000
2015-04-21 08:59:02,0.10,1.01,0.00,23.67,27.10,29.94,4.76,26.49,1017.23,2034.45,3069.33,3023.03,3274.57,350.22,347.46,8.38,0000 0000 0000 0000 000000
2015-04-21 09:04:03,0.08,1.01,0.00,23.67,27.10,29.95,4.73,26.52,1017.44,2034.37,3068.32,3022.22,3273.90,349.94,347.17,8.41,0000 0000 0000 0000 000000
2015-04-21 09:09:04,0.11,1.01,0.00,23.65,27.10,29.95,4.79,26.52,1017.41,2034.53,3067.40,3021.68,3273.09,349.87,347.08,8.44,0000 0000 0000 0000 000000
2015-04-21 09:14:05,0.05,1.01,0.00,23.62,27.10,29.95,4.79,26.59,1017.27,2034.40,3066.35,3020.97,3272.31,349.73,346.97,8.47,0000 0000 0000 0000 000000
2015-04-21 09:19:07,0.10,1.02,0.00,23.64,27.10,29.95,4.78,26.63,1017.29,2034.50,3065.44,3020.15,3271.64,349.88,347.08,8.50,0000 0000 0000 0000 000000
2015-04-21 09:24:08,0.09,1.02,0.00,23.64,27.10,29.96,4.73,26.64,1017.38,2034.42,3064.38,3019.55,3270.88,349.62,346.88,8.53,0000 0000 0000 0000 000000
2015-04-21 09:29:09,0.06,1.02,0.00,23.61,27.10,29.95,4.74,26.52,1017.42,2034.39,3063.53,3018.94,3270.04,349.60,347.02,8.56,0000 0000 0000 0000 000000
2015-04-21 09:34:11,0.11,1.02,0.00,23.60,27.10,29.96,4.81,26.57,1017.42,2034.43,3062.58,3018.10,3269.33,349.97,347.14,8.59,0000 0000 0000 0000 000000
2015-04-21 09:39:12,0.04,1.03,0.00,23.60,27.09,29.97,4.82,26.63,1017.43,2034.42,3061.62,3017.63,3268.82,349.76,347.06,8.62,0000 0000 0000 0000 000000
2015-04-21 09:44:13,0.06,1.03,0.00,23.58,27.08,29.96,4.74,26.52,1017.50,2034.44,3060.87,3017.01,3268.06,350.04,347.49,8.65,0000 0000 0000 0000 000000
2015-04-21 09:49:14,0.10,1.03,0.00,23.55,27.08,29.95,4.70,26.48,1017.54,2034.39,3060.02,3016.34,3267.36,349.86,347.27,8.67,0000 0000 0000 0000 000000
2015-04-21 09:54:15,0.02,1.03,0.00,23.55,27.07,29.95,4.69,26.66,1017.58,2034.33,3059.11,3015.96,3266.88,349.47,347.10,8.70,0000 0000 0000 0000 000000
2015-04-21 09:59:17,0.11,1.04,0.00,23.55,27.07,29.95,4.75,26.52,1017.59,2034.48,3058.23,3015.17,3266.09,349.91,347.24,8.73,0000 0000 0000 0000 000000
2015-04-21 10:04:18,0.06,1.04,0.00,23.53,27.07,29.95,4.79,26.58,1017.59,2034.32,3057.32,3014.57,3265.38,350.49,347.88,8.76,0000 0000 0000 0000 000000
2015-04-21 10:09:20,0.07,1.04,0.00,23.52,27.07,29.96,4.79,26.55,1017.59,2034.40,3056.48,3014.00,3264.81,350.33,347.56,8.79,0000 0000 0000 0000 000000
2015-04-21 10:14:21,0.08,1.04,0.00,23.52,27.07,29.95,4.77,26.54,1017.59,2034.44,3055.83,3013.35,3264.06,349.83,347.23,8.82,0000 0000 0000 0000 000000
2015-04-21 10:19:22,0.04,1.04,0.00,23.49,27.07,29.95,4.73,26.52,1017.59,2034.40,3055.00,3012.99,3263.57,350.01,347.41,8.85,0000 0000 0000 0000 000000
2015-04-21 10:24:23,0.10,1.05,0.00,23.48,27.07,29.95,4.73,26.60,1017.59,2034.50,3054.12,3012.24,3263.01,350.26,347.68,8.88,0000 0000 0000 0000 000000
2015-04-21 10:29:24,0.03,1.05,0.00,23.48,27.06,29.95,4.82,26.71,1017.59,2034.56,3053.35,3011.92,3262.52,350.12,347.52,8.91,0000 0000 0000 0000 000000
2015-04-21 10:34:26,0.11,1.05,0.00,23.46,27.05,29.94,4.74,26.63,1017.59,2034.73,3052.72,3011.18,3261.98,349.53,347.15,8.94,0000 0000 0000 0000 000000
2015-04-21 10:39:27,0.01,1.05,0.00,23.45,27.05,29.93,4.74,26.63,1017.59,2034.50,3051.95,3010.85,3261.20,349.40,346.90,8.97,0000 0000 0000 0000 000000
2015-04-21 10:44:28,0.09,1.06,0.00,23.45,27.05,29.93,4.76,26.58,1017.59,2034.69,3051.13,3010.12,3260.92,349.83,347.31,9.00,0000 0000 0000 0000 000000
2015-04-21 10:49:29,0.10,1.06,0.00,23.45,27.05,29.92,4.77,26.52,1017.59,2034.77,3050.45,3009.89,3260.14,350.50,347.87,9.03,0000 0000 0000 0000 000000
2015-04-21 10:54:31,0.06,1.06,0.00,23.42,27.05,29.92,4.70,26.58,1017.59,2034.89,3049.77,3009.13,3259.87,349.98,347.51,9.06,0000 0000 0000 0000 000000
2015-04-21 10:59:32,0.05,1.06,0.00,23.40,27.03,29.92,4.73,26.58,1017.59,2034.93,3049.02,3008.94,3259.10,349.68,347.23,9.09,0000 0000 0000 0000 000000
2015-04-21 11:04:33,0.08,1.06,0.00,23.38,27.02,29.92,4.77,26.65,1017.59,2034.93,3048.22,3008.17,3258.72,349.97,347.65,9.11,0000 0000 0000 0000 000000
2015-04-21 11:09:34,0.04,1.06,0.00,23.37,27.02,29.91,4.80,26.55,1017.59,2034.94,3047.49,3007.95,3258.03,350.04,347.53,9.14,0000 0000 0000 0000 000000
2015-04-21 11:14:35,0.08,1.07,0.00,23.37,27.02,29.91,4.79,26.57,1017.59,2034.92,3046.81,3007.20,3257.51,350.29,347.84,9.17,0000 0000 0000 0000 000000
2015-04-21 11:19:36,0.03,1.07,0.00,23.36,27.02,29.91,4.83,26.55,1017.59,2034.97,3046.02,3006.98,3256.99,350.92,348.39,9.20,0000 0000 0000 0000 000000
2015-04-21 11:24:38,0.10,1.07,0.00,23.33,27.02,29.91,4.84,26.65,1017.59,2034.96,3045.24,3006.28,3256.31,350.39,348.07,9.23,0000 0000 0000 0000 000000
2015-04-21 11:29:39,0.04,1.07,0.00,23.32,27.01,29.90,4.75,26.56,1017.59,2034.97,3044.49,3005.89,3255.85,349.16,346.81,9.26,0000 0000 0000 0000 000000
2015-04-21 11:34:40,0.08,1.07,0.00,23.29,27.00,29.91,4.81,26.61,1017.59,2034.96,3043.71,3005.15,3255.09,349.87,347.53,9.29,0000 0000 0000 0000 000000
2015-04-21 11:39:41,0.07,1.08,0.00,23.27,27.00,29.91,4.73,26.62,1017.59,2034.96,3042.87,3004.72,3254.45,349.73,347.48,9.32,0000 0000 0000 0000 000000
2015-04-21 11:44:43,0.05,1.08,0.00,23.27,27.00,29.89,4.73,26.54,1017.59,2034.96,3041.98,3004.03,3253.89,350.18,347.91,9.35,0000 0000 0000 0000 000000
2015-04-21 11:49:44,0.09,1.08,0.00,23.27,27.00,29.89,4.77,26.52,1017.59,2034.96,3041.08,3003.40,3253.08,349.69,347.56,9.38,0000 0000 0000 0000 000000
2015-04-21 11:54:45,0.06,1.08,0.00,23.25,27.00,29.88,4.74,26.52,1017.59,2034.96,3040.20,3002.93,3252.52,349.55,347.35,9.41,0000 0000 0000 0000 000000
2015-04-21 11:59:46,0.08,1.09,0.00,23.25,26.98,29.88,4.72,26.62,1017.59,2034.97,3039.35,3002.11,3251.88,350.08,347.82,9.44,0000 0000 0000 0000 000000
2015-04-21 12:04:47,0.08,1.09,0.00,23.22,26.97,29.88,4.81,26.56,1017.51,2034.96,3038.39,3001.63,3251.07,349.94,347.74,9.47,0000 0000 0000 0000 000000
2015-04-21 12:09:48,0.07,1.09,0.00,23.28,26.97,29.86,4.76,26.52,1017.23,2034.96,3037.48,3000.99,3250.36,350.34,347.89,9.49,0000 0000 0000 0000 000000
2015-04-21 12:14:49,0.08,1.09,0.00,23.57,26.97,29.82,4.74,26.69,1017.22,2034.95,3036.63,3000.18,3249.76,348.81,346.17,9.52,0000 0000 0000 0000 000000
2015-04-21 12:19:50,0.05,1.09,0.00,23.64,26.97,29.79,4.78,26.57,1017.25,2034.96,3035.78,2999.82,3249.02,349.61,346.85,9.55,0000 0000 0000 0000 000000
2015-04-21 12:24:52,0.09,1.10,0.00,23.55,26.98,29.72,4.69,26.66,1017.23,2034.96,3034.77,2999.02,3248.24,349.32,346.54,9.58,0000 0000 0000 0000 000000
2015-04-21 12:29:52,0.08,1.10,0.00,23.42,27.00,29.74,4.76,26.59,1017.23,2034.93,3033.84,2998.22,3247.65,349.79,347.39,9.61,0000 0000 0000 0000 000000
2015-04-21 12:34:54,0.06,1.10,0.00,23.39,27.00,29.86,4.74,26.68,1017.25,2034.92,3032.83,2997.75,3246.89,349.75,347.16,9.64,0000 0000 0000 0000 000000
2015-04-21 12:39:55,0.05,1.10,0.00,23.36,27.00,29.90,4.75,26.63,1017.17,2034.74,3031.94,2997.02,3246.06,349.50,347.06,9.67,0000 0000 0000 0000 000000
2015-04-21 12:44:56,0.11,1.11,0.00,23.33,27.00,29.91,4.79,26.49,1017.13,2034.87,3031.00,2996.37,3245.40,349.90,347.37,9.70,0000 0000 0000 0000 000000
2015-04-21 12:49:58,0.04,1.11,0.00,23.28,27.00,29.92,4.74,26.49,1017.13,2034.79,3030.07,2995.91,3244.83,349.84,347.39,9.73,0000 0000 0000 0000 000000
2015-04-21 12:54:59,0.09,1.11,0.00,23.23,27.00,29.91,4.80,26.52,1017.12,2034.87,3029.19,2995.08,3244.05,350.68,348.31,9.76,0000 0000 0000 0000 000000
2015-04-21 13:00:01,0.10,1.11,0.00,23.20,27.00,29.93,4.77,26.64,1017.14,2034.88,3028.33,2994.60,3243.32,349.78,347.41,9.79,0000 0000 0000 0000 000000
2015-04-21 13:05:02,0.05,1.12,0.00,23.17,27.00,29.94,4.73,26.60,1017.12,2034.88,3027.48,2993.99,3242.80,349.50,347.06,9.82,0000 0000 0000 0000 000000